Total_Precipitation_Accumulation
1.07 1.12 1.18 1.26 1.33 1.40 1.43 1.43 1.42 1.39 1.40 1.43 1.47 1.51 1.51 1.55 1.71 1.81 1.72 1.92 2.03 2.07 1.89 1.80 1.72 1.71 1.71 1.57 1.59 1.69 1.75 1.97 1.92 1.54 1.49 1.63 1.73 1.63 1.68 1.63 1.53 1.55 1.41
1.04 1.18 1.22 1.33 1.36 1.34 1.36 1.56 1.59 1.56 1.53 1.52 1.55 1.64 1.62 1.64 1.74 1.70 1.59 1.68 1.87 2.06 2.24 2.30 2.07 1.99 1.95 1.79 1.76 1.74 1.76 1.92 1.96 1.84 1.74 1.81 1.84 1.78 1.75 1.57 1.31 1.23 1.28
0.96 1.10 1.26 1.33 1.38 1.46 1.59 1.76 1.87 1.79 1.74 1.76 1.80 1.75 1.75 1.77 1.72 1.65 1.65 1.70 1.82 1.89 2.08 2.26 2.26 2.35 2.12 2.06 1.96 1.87 1.83 1.81 1.96 1.89 1.75 1.94 1.97 1.94 1.84 1.50 1.36 1.36 1.22
1.13 1.26 1.36 1.54 1.67 1.75 1.75 1.84 1.87 1.88 1.92 1.92 1.94 1.88 1.84 1.87 1.84 1.79 1.76 1.75 1.81 1.82 1.85 1.91 2.04 2.30 2.28 2.27 2.12 2.10 2.12 2.10 2.17 2.09 1.98 2.09 2.27 2.30 2.13 1.76 1.59 1.51 1.37
1.46 1.48 1.51 1.61 1.73 1.88 2.05 2.10 2.10 2.09 2.04 2.14 2.10 2.01 1.98 1.98 1.83 1.90 2.06 2.05 2.11 1.96 1.88 1.82 1.81 2.05 2.15 2.16 1.94 2.01 2.18 2.22 2.25 2.22 2.20 2.26 2.31 2.42 2.14 1.89 1.72 1.67 1.59
1.96 2.03 2.11 2.19 2.27 2.34 2.40 2.40 2.44 2.41 2.33 2.23 2.12 2.12 2.11 1.92 2.03 2.09 2.00 2.05 2.23 2.23 2.12 2.05 1.94 1.90 1.89 1.92 1.96 2.00 2.07 2.07 2.10 2.15 2.11 2.14 2.21 2.32 2.41 2.24 1.98 1.82 1.65
2.09 2.16 2.26 2.34 2.45 2.54 2.57 2.57 2.47 2.42 2.36 2.24 2.22 2.24 2.18 2.21 2.17 1.94 1.79 1.80 1.88 1.99 2.07 2.06 1.85 1.73 1.86 1.80 1.96 1.99 1.86 1.79 1.77 1.85 1.88 1.92 2.30 2.55 2.78 2.49 2.24 2.03 1.78
2.23 2.27 2.27 2.30 2.39 2.53 2.65 2.56 2.39 2.33 2.29 2.25 2.22 2.11 2.05 2.00 2.00 1.78 1.73 1.67 1.64 1.62 1.74 1.85 1.82 1.74 1.75 1.81 1.77 1.58 1.46 1.46 1.48 1.40 1.45 1.66 2.02 2.51 2.76 2.75 2.69 2.44 2.16
1.98 2.09 2.07 2.15 2.31 2.43 2.47 2.45 2.42 2.34 2.17 2.05 1.96 1.91 1.86 1.91 2.03 1.82 1.73 1.64 1.68 1.57 1.56 1.56 1.57 1.48 1.57 1.61 1.52 1.37 1.26 1.24 1.28 1.29 1.28 1.43 1.69 2.01 2.38 2.54 2.45 2.25 1.92
1.95 2.10 2.22 2.29 2.39 2.40 2.45 2.55 2.53 2.44 2.37 2.29 2.13 2.03 1.99 1.96 2.09 1.86 1.71 1.60 1.66 1.62 1.61 1.62 1.69 1.51 1.41 1.30 1.23 1.24 1.11 1.04 1.14 1.13 1.12 1.18 1.29 1.55 1.95 2.04 2.03 2.03 1.81
1.97 2.04 2.14 2.25 2.37 2.51 2.66 2.62 2.59 2.52 2.42 2.25 2.07 1.96 1.93 1.90 1.89 1.68 1.54 1.40 1.41 1.42 1.35 1.31 1.39 1.41 1.22 1.06 1.05 1.04 0.99 0.99 1.05 1.01 0.96 0.97 1.09 1.25 1.43 1.72 1.85 1.80 1.68
2.05 2.12 2.15 2.26 2.28 2.34 2.41 2.38 2.35 2.36 2.31 2.25 2.22 2.16 2.09 1.95 1.71 1.49 1.33 1.23 1.23 1.23 1.34 1.35 1.42 1.47 1.23 1.08 0.94 0.86 0.88 0.84 0.85 0.92 0.90 0.88 0.94 1.05 1.27 1.54 1.80 1.84 1.70
2.04 2.13 2.24 2.27 2.29 2.35 2.44 2.46 2.38 2.30 2.24 2.14 2.05 1.89 1.85 1.86 1.77 1.53 1.29 1.18 1.17 1.13 1.35 1.62 1.64 1.58 1.38 1.13 1.03 1.02 0.93 0.81 0.85 0.89 0.88 0.85 0.88 1.02 1.28 1.56 1.79 1.96 1.89
2.02 2.05 2.16 2.27 2.37 2.44 2.44 2.37 2.23 2.07 1.99 1.92 1.81 1.72 1.72 1.74 1.65 1.55 1.40 1.28 1.27 1.24 1.34 1.56 1.68 1.70 1.60 1.43 1.33 1.24 1.03 0.95 1.00 1.00 1.02 1.06 1.14 1.26 1.43 1.55 1.72 1.86 1.91
2.02 2.06 2.03 2.04 2.09 2.16 2.20 2.18 2.05 1.92 1.81 1.74 1.65 1.62 1.60 1.58 1.58 1.55 1.38 1.27 1.23 1.27 1.40 1.63 1.76 1.87 1.89 1.82 1.69 1.59 1.46 1.32 1.20 1.16 1.19 1.19 1.22 1.31 1.38 1.52 1.72 1.80 1.73
2.03 1.92 1.82 1.71 1.68 1.69 1.69 1.75 1.85 1.75 1.71 1.56 1.46 1.40 1.36 1.39 1.38 1.28 1.16 1.12 1.16 1.24 1.32 1.49 1.72 1.91 1.97 2.06 2.06 1.96 1.75 1.56 1.44 1.41 1.37 1.33 1.33 1.32 1.37 1.53 1.73 1.83 1.72
1.90 1.76 1.65 1.61 1.59 1.51 1.46 1.46 1.54 1.56 1.50 1.39 1.38 1.29 1.18 1.22 1.15 1.07 1.05 1.03 1.03 1.08 1.15 1.27 1.40 1.54 1.72 1.93 2.03 2.01 1.81 1.68 1.70 1.66 1.58 1.54 1.56 1.57 1.57 1.67 1.83 1.92 1.89
1.72 1.74 1.57 1.48 1.54 1.52 1.46 1.42 1.43 1.46 1.45 1.37 1.35 1.30 1.09 0.99 0.98 0.97 0.97 0.94 0.86 0.87 0.96 1.09 1.23 1.38 1.55 1.81 1.96 2.00 1.96 1.87 1.88 1.90 1.86 1.80 1.78 1.73 1.68 1.65 1.77 1.86 1.88
1.56 1.58 1.53 1.48 1.45 1.46 1.45 1.39 1.34 1.32 1.35 1.29 1.23 1.27 1.20 1.05 0.99 1.01 1.02 0.95 0.88 0.87 0.96 1.01 1.08 1.23 1.41 1.64 1.88 2.03 2.05 1.95 1.87 1.94 1.93 1.85 1.83 1.83 1.72 1.62 1.68 1.84 1.92
1.41 1.54 1.47 1.46 1.47 1.44 1.46 1.46 1.39 1.38 1.37 1.31 1.22 1.23 1.24 1.14 1.05 1.13 1.20 1.21 1.12 1.07 1.08 1.10 1.17 1.29 1.44 1.67 1.87 1.96 1.99 1.96 1.90 1.91 1.90 1.82 1.79 1.78 1.64 1.57 1.58 1.65 1.69
1.31 1.29 1.33 1.26 1.30 1.37 1.37 1.40 1.40 1.40 1.36 1.29 1.20 1.19 1.16 1.08 1.18 1.28 1.38 1.40 1.32 1.23 1.19 1.17 1.21 1.30 1.48 1.68 1.82 1.92 1.94 1.94 1.94 1.92 1.88 1.81 1.77 1.78 1.73 1.67 1.62 1.64 1.67
1.30 1.18 1.15 1.17 1.31 1.35 1.39 1.43 1.45 1.42 1.38 1.36 1.34 1.32 1.28 1.14 1.23 1.33 1.40 1.46 1.46 1.44 1.38 1.34 1.31 1.37 1.46 1.59 1.74 1.86 1.87 1.84 1.84 1.86 1.85 1.81 1.80 1.81 1.84 1.83 1.78 1.76 1.79
1.32 1.29 1.26 1.24 1.34 1.43 1.44 1.49 1.50 1.48 1.46 1.44 1.41 1.37 1.36 1.33 1.37 1.44 1.49 1.53 1.51 1.50 1.45 1.42 1.39 1.42 1.46 1.49 1.58 1.68 1.72 1.71 1.68 1.70 1.76 1.73 1.70 1.70 1.74 1.76 1.75 1.76 1.74
1.20 1.28 1.29 1.28 1.32 1.33 1.35 1.36 1.36 1.33 1.33 1.34 1.39 1.46 1.48 1.49 1.54 1.58 1.55 1.50 1.44 1.41 1.41 1.39 1.37 1.38 1.41 1.45 1.47 1.44 1.46 1.49 1.46 1.46 1.51 1.57 1.60 1.60 1.64 1.65 1.69 1.75 1.80
1.08 1.23 1.32 1.29 1.24 1.25 1.23 1.17 1.16 1.22 1.30 1.37 1.40 1.45 1.52 1.55 1.56 1.51 1.44 1.36 1.28 1.27 1.30 1.28 1.27 1.22 1.21 1.22 1.22 1.22 1.34 1.35 1.32 1.30 1.31 1.36 1.40 1.46 1.52 1.54 1.60 1.71 1.85
1.07 1.16 1.22 1.22 1.19 1.21 1.26 1.22 1.16 1.21 1.32 1.36 1.40 1.39 1.39 1.42 1.44 1.39 1.31 1.27 1.23 1.20 1.21 1.23 1.18 1.09 1.06 1.05 1.04 1.07 1.06 1.01 1.05 1.14 1.16 1.19 1.28 1.37 1.43 1.46 1.50 1.62 1.74